{"data":{"norad_id":68288,"epoch":"2026-05-25T00:00:02.000160Z","epoch_age_seconds":72091,"freshness":"FRESH","line1":"1 68288U 26055AC  26145.00002315  .00045327  00000+0  13459-2 0  9993","line2":"2 68288  53.1578 323.9965 0000638  64.9370  19.4537 15.34369727  5962","mean_motion":15.34369727,"eccentricity":6.38e-5,"inclination_deg":53.1578,"raan_deg":323.9965,"arg_perigee_deg":64.937,"mean_anomaly_deg":19.4537,"bstar":0.0013459,"rev_number":596,"period_min":93.849609690585,"perigee_km":462.35676807423,"apogee_km":463.22967077022,"semimajor_km":6840.9302194222,"source":"CELESTRAK","updated_at":"2026-05-25T13:38:21.914509Z"}}